N285SF KBOS-KBED

Flight info

Callsign N285SF
Flight time 0h 9m
Altitude VFR/015
Route
Aircraft P28A/L-VGD/C

Departure

Time 2026-04-28 01:03
Airport Boston Logan International Airport (KBOS)

Arrival

Time 2026-04-28 01:13
Airport Laurence G Hanscom Field (KBED)
Time Latitude Longitude Altitude Speed Heading
2026-04-28 00:54 42.37445 -71.02147 10 ft 0 kts 313°
2026-04-28 00:56 42.37460 -71.02157 10 ft 3 kts 29°
2026-04-28 00:56 42.37463 -71.02151 10 ft 2 kts 86°
2026-04-28 00:56 42.37464 -71.02145 9 ft 2 kts 64°
2026-04-28 00:56 42.37466 -71.02142 9 ft 0 kts 47°
2026-04-28 00:58 42.37474 -71.02129 9 ft 8 kts 49°
2026-04-28 00:58 42.37462 -71.02046 8 ft 11 kts 127°
2026-04-28 00:58 42.37399 -71.01960 7 ft 15 kts 134°
2026-04-28 00:59 42.37321 -71.01852 10 ft 17 kts 136°
2026-04-28 00:59 42.37232 -71.01730 10 ft 20 kts 134°
2026-04-28 00:59 42.37132 -71.01585 11 ft 22 kts 132°
2026-04-28 00:59 42.37023 -71.01444 8 ft 22 kts 139°
2026-04-28 01:00 42.36917 -71.01308 8 ft 21 kts 133°
2026-04-28 01:00 42.36814 -71.01175 7 ft 20 kts 136°
2026-04-28 01:00 42.36738 -71.01138 10 ft 17 kts 186°
2026-04-28 01:00 42.36631 -71.01185 11 ft 16 kts 201°
2026-04-28 01:01 42.36524 -71.01242 8 ft 18 kts 227°
2026-04-28 01:01 42.36414 -71.01294 9 ft 17 kts 195°
2026-04-28 01:01 42.36347 -71.01316 10 ft 9 kts 173°
2026-04-28 01:01 42.36332 -71.01303 10 ft 0 kts 122°
2026-04-28 01:02 42.36322 -71.01281 11 ft 7 kts 121°
2026-04-28 01:02 42.36302 -71.01197 12 ft 10 kts 50°
2026-04-28 01:02 42.36477 -71.01104 11 ft 53 kts 21°
2026-04-28 01:03 42.36953 -71.00892 92 ft 79 kts 20°
2026-04-28 01:03 42.37473 -71.00659 301 ft 80 kts 22°
2026-04-28 01:03 42.38037 -71.00574 508 ft 89 kts 342°
2026-04-28 01:03 42.38426 -71.01248 658 ft 98 kts 277°
2026-04-28 01:04 42.38330 -71.02145 879 ft 97 kts 250°
2026-04-28 01:04 42.38045 -71.02975 1017 ft 102 kts 243°
2026-04-28 01:04 42.37728 -71.03853 1096 ft 105 kts 243°
2026-04-28 01:04 42.37452 -71.04770 1103 ft 105 kts 247°
2026-04-28 01:05 42.37187 -71.05685 1108 ft 106 kts 251°
2026-04-28 01:05 42.36956 -71.06636 1098 ft 106 kts 248°
2026-04-28 01:05 42.36494 -71.07395 1061 ft 106 kts 212°
2026-04-28 01:05 42.35880 -71.07925 1045 ft 105 kts 219°
2026-04-28 01:06 42.35526 -71.08806 996 ft 110 kts 251°
2026-04-28 01:06 42.35366 -71.09794 1019 ft 106 kts 262°
2026-04-28 01:06 42.35354 -71.10796 992 ft 108 kts 277°
2026-04-28 01:06 42.35661 -71.11706 1001 ft 106 kts 301°
2026-04-28 01:07 42.35968 -71.12606 1001 ft 107 kts 297°
2026-04-28 01:07 42.36513 -71.13279 995 ft 105 kts 331°
2026-04-28 01:07 42.37134 -71.13771 1021 ft 103 kts 329°
2026-04-28 01:07 42.37714 -71.14358 1007 ft 105 kts 323°
2026-04-28 01:08 42.38295 -71.14942 1017 ft 104 kts 326°
2026-04-28 01:08 42.38872 -71.15535 1019 ft 104 kts 326°
2026-04-28 01:08 42.39466 -71.16102 1034 ft 104 kts 326°
2026-04-28 01:08 42.40056 -71.16680 1002 ft 106 kts 327°
2026-04-28 01:09 42.40679 -71.17215 1009 ft 105 kts 327°
2026-04-28 01:09 42.41118 -71.18011 1018 ft 107 kts 292°
2026-04-28 01:09 42.41319 -71.18949 1093 ft 104 kts 287°
2026-04-28 01:09 42.41522 -71.19872 1175 ft 100 kts 288°
2026-04-28 01:10 42.41709 -71.20791 1189 ft 103 kts 289°
2026-04-28 01:10 42.42092 -71.21580 1173 ft 101 kts 321°
2026-04-28 01:10 42.42685 -71.22081 1123 ft 99 kts 337°
2026-04-28 01:10 42.43316 -71.22431 1102 ft 99 kts 342°
2026-04-28 01:11 42.43953 -71.22785 1101 ft 98 kts 341°
2026-04-28 01:11 42.44583 -71.23123 1079 ft 98 kts 341°
2026-04-28 01:11 42.45229 -71.23441 965 ft 98 kts 344°
2026-04-28 01:11 42.45866 -71.23719 863 ft 91 kts 345°
2026-04-28 01:12 42.46443 -71.24064 746 ft 91 kts 320°
2026-04-28 01:12 42.46708 -71.24835 684 ft 93 kts 280°
2026-04-28 01:12 42.46788 -71.25731 528 ft 95 kts 273°
2026-04-28 01:12 42.46853 -71.26549 396 ft 82 kts 275°
2026-04-28 01:13 42.46928 -71.27300 200 ft 78 kts 276°
2026-04-28 01:13 42.47023 -71.28329 130 ft 23 kts 271°
2026-04-28 01:13 42.46941 -71.28453 128 ft 12 kts 216°
2026-04-28 01:14 42.46924 -71.28470 131 ft 0 kts 219°
2026-04-28 01:14 42.46914 -71.28480 131 ft 8 kts 217°
2026-04-28 01:15 42.46852 -71.28552 131 ft 13 kts 236°
2026-04-28 01:15 42.46828 -71.28670 132 ft 13 kts 239°
2026-04-28 01:15 42.46763 -71.28771 133 ft 18 kts 221°
2026-04-28 01:15 42.46665 -71.28871 133 ft 17 kts 217°
2026-04-28 01:16 42.46568 -71.28971 133 ft 17 kts 218°
2026-04-28 01:16 42.46467 -71.29010 132 ft 16 kts 187°
2026-04-28 01:16 42.46429 -71.29107 132 ft 15 kts 284°
2026-04-28 01:16 42.46391 -71.29224 132 ft 13 kts 241°
2026-04-28 01:17 42.46368 -71.29242 132 ft 0 kts 136°
2026-04-28 01:17 42.46365 -71.29236 132 ft 0 kts 123°
2026-04-28 01:18 42.46985 -71.27929 130 ft 0 kts 272°